Time,TemperatureF,DewpointF,PressureIn,WindDirection,WindDirectionDegrees,WindSpeedMPH,WindSpeedGustMPH,Humidity,HourlyPrecipIn,Conditions,Clouds,dailyrainin,SoftwareType,DateUTC
2013-04-20 08:32:00,45.1,42.1,30.42,SSE,152,6.0,6.0,89,0.00,,,0.00,meteohub,2013-04-20 07:32:00,
2013-04-20 08:37:00,45.3,42.3,30.42,South,171,2.0,14.0,89,0.00,,,0.00,meteohub,2013-04-20 07:37:00,
2013-04-20 08:42:00,45.3,42.3,30.42,South,184,6.0,14.0,89,0.00,,,0.00,meteohub,2013-04-20 07:42:00,
2013-04-20 08:47:00,45.5,42.4,30.42,South,171,6.0,14.0,89,0.00,,,0.00,meteohub,2013-04-20 07:47:00,
2013-04-20 08:52:00,45.9,42.8,30.42,South,180,8.0,14.0,89,0.00,,,0.00,meteohub,2013-04-20 07:52:00,
2013-04-20 08:57:00,46.2,43.2,30.42,South,178,5.0,13.0,89,0.00,,,0.00,meteohub,2013-04-20 07:57:00,
2013-04-20 09:07:00,46.8,43.3,30.41,South,171,8.0,16.0,88,0.00,,,0.00,meteohub,2013-04-20 08:07:00,
2013-04-20 09:12:00,47.1,43.7,30.42,SSW,211,10.0,18.0,88,0.00,,,0.00,meteohub,2013-04-20 08:12:00,
2013-04-20 09:22:00,47.1,43.5,30.41,South,182,8.0,15.0,87,0.00,,,0.00,meteohub,2013-04-20 08:22:00,
2013-04-20 09:27:00,47.5,44.1,30.41,SSE,160,5.0,15.0,88,0.00,,,0.00,meteohub,2013-04-20 08:27:00,
2013-04-20 09:37:00,48.7,45.0,30.41,SSE,164,9.0,15.0,87,0.00,,,0.00,meteohub,2013-04-20 08:37:00,
2013-04-20 09:42:00,49.5,45.5,30.40,South,170,9.0,14.0,86,0.00,,,0.00,meteohub,2013-04-20 08:42:00,
2013-04-20 09:52:00,50.5,45.9,30.40,SSW,195,5.0,13.0,84,0.00,,,0.00,meteohub,2013-04-20 08:52:00,
2013-04-20 10:07:00,51.4,46.2,30.40,SSW,210,9.0,15.0,82,0.00,,,0.00,meteohub,2013-04-20 09:07:00,
2013-04-20 10:12:00,52.0,46.4,30.40,South,184,6.0,16.0,81,0.00,,,0.00,meteohub,2013-04-20 09:12:00,
2013-04-20 10:17:00,52.0,46.4,30.40,South,180,5.0,16.0,81,0.00,,,0.00,meteohub,2013-04-20 09:17:00,
2013-04-20 10:22:00,52.3,46.4,30.40,SSE,168,11.0,16.0,80,0.00,,,0.00,meteohub,2013-04-20 09:22:00,
2013-04-20 10:32:00,52.9,46.6,30.40,South,188,6.0,18.0,79,0.00,,,0.00,meteohub,2013-04-20 09:32:00,
2013-04-20 10:37:00,53.4,46.0,30.40,SW,218,6.0,18.0,76,0.00,,,0.00,meteohub,2013-04-20 09:37:00,
2013-04-20 10:42:00,53.4,46.0,30.40,South,182,8.0,19.0,76,0.00,,,0.00,meteohub,2013-04-20 09:42:00,
2013-04-20 10:47:00,53.6,45.9,30.39,SW,221,15.0,19.0,75,0.00,,,0.00,meteohub,2013-04-20 09:47:00,
2013-04-20 10:52:00,54.1,45.7,30.39,South,187,4.0,19.0,73,0.00,,,0.00,meteohub,2013-04-20 09:52:00,
2013-04-20 10:57:00,54.5,45.3,30.39,South,177,9.0,19.0,71,0.00,,,0.00,meteohub,2013-04-20 09:57:00,
2013-04-20 11:02:00,54.7,45.9,30.39,SSW,198,11.0,20.0,72,0.00,,,0.00,meteohub,2013-04-20 10:02:00,
2013-04-20 11:07:00,54.9,45.3,30.39,SSW,207,2.0,20.0,70,0.00,,,0.00,meteohub,2013-04-20 10:07:00,
2013-04-20 11:17:00,56.1,46.4,30.39,SSE,154,9.0,20.0,70,0.00,,,0.00,meteohub,2013-04-20 10:17:00,
2013-04-20 11:27:00,55.6,46.0,30.39,SSW,200,1.0,14.0,70,0.00,,,0.00,meteohub,2013-04-20 10:27:00,
2013-04-20 11:32:00,55.6,44.4,30.39,SW,224,1.0,16.0,66,0.00,,,0.00,meteohub,2013-04-20 10:32:00,
2013-04-20 11:37:00,56.8,45.1,30.39,SSW,198,8.0,20.0,65,0.00,,,0.00,meteohub,2013-04-20 10:37:00,
2013-04-20 11:47:00,56.1,43.7,30.38,South,189,9.0,25.0,63,0.00,,,0.00,meteohub,2013-04-20 10:47:00,
2013-04-20 11:52:00,55.8,44.6,30.38,SSW,194,10.0,25.0,66,0.00,,,0.00,meteohub,2013-04-20 10:52:00,
2013-04-20 11:57:00,56.1,44.1,30.38,SW,229,10.0,18.0,64,0.00,,,0.00,meteohub,2013-04-20 10:57:00,
2013-04-20 12:02:00,56.1,44.6,30.38,WSW,252,6.0,18.0,65,0.00,,,0.00,meteohub,2013-04-20 11:02:00,
2013-04-20 12:12:00,56.1,43.7,30.38,WSW,252,8.0,18.0,63,0.00,,,0.00,meteohub,2013-04-20 11:12:00,
2013-04-20 12:22:00,56.7,44.2,30.37,South,172,8.0,19.0,63,0.00,,,0.00,meteohub,2013-04-20 11:22:00,
2013-04-20 12:27:00,57.0,43.7,30.37,SSW,208,5.0,15.0,61,0.00,,,0.00,meteohub,2013-04-20 11:27:00,
2013-04-20 12:32:00,56.1,42.8,30.37,WSW,245,6.0,14.0,61,0.00,,,0.00,meteohub,2013-04-20 11:32:00,
2013-04-20 12:37:00,55.4,42.6,30.37,SW,219,4.0,15.0,62,0.00,,,0.00,meteohub,2013-04-20 11:37:00,
2013-04-20 12:42:00,55.9,43.2,30.37,West,277,6.0,15.0,62,0.00,,,0.00,meteohub,2013-04-20 11:42:00,
2013-04-20 12:47:00,55.8,43.0,30.37,WSW,240,2.0,14.0,62,0.00,,,0.00,meteohub,2013-04-20 11:47:00,
2013-04-20 12:52:00,55.6,42.3,30.37,West,260,8.0,16.0,61,0.00,,,0.00,meteohub,2013-04-20 11:52:00,
2013-04-20 12:57:00,55.6,43.2,30.37,WNW,292,4.0,16.0,63,0.00,,,0.00,meteohub,2013-04-20 11:57:00,
2013-04-20 13:02:00,56.8,43.2,30.36,SW,232,4.0,18.0,60,0.00,,,0.00,meteohub,2013-04-20 12:02:00,
2013-04-20 13:12:00,57.6,43.3,30.36,WNW,292,2.0,21.0,59,0.00,,,0.00,meteohub,2013-04-20 12:12:00,
2013-04-20 13:17:00,58.1,44.2,30.35,West,265,5.0,21.0,60,0.00,,,0.00,meteohub,2013-04-20 12:17:00,
2013-04-20 13:22:00,57.7,43.9,30.35,WSW,257,2.0,15.0,60,0.00,,,0.00,meteohub,2013-04-20 12:22:00,
2013-04-20 13:32:00,56.7,44.2,30.35,SSW,211,16.0,22.0,63,0.00,,,0.00,meteohub,2013-04-20 12:32:00,
2013-04-20 13:42:00,55.8,44.2,30.35,SW,225,2.0,19.0,65,0.00,,,0.00,meteohub,2013-04-20 12:42:00,
2013-04-20 13:47:00,55.9,44.8,30.35,West,266,6.0,19.0,66,0.00,,,0.00,meteohub,2013-04-20 12:47:00,
2013-04-20 13:52:00,56.1,44.1,30.35,West,265,9.0,19.0,64,0.00,,,0.00,meteohub,2013-04-20 12:52:00,
2013-04-20 13:57:00,56.1,43.7,30.35,SW,236,5.0,16.0,63,0.00,,,0.00,meteohub,2013-04-20 12:57:00,
2013-04-20 14:02:00,56.7,43.7,30.35,SSW,194,5.0,16.0,62,0.00,,,0.00,meteohub,2013-04-20 13:02:00,
2013-04-20 14:07:00,57.4,43.7,30.35,SSW,192,9.0,15.0,60,0.00,,,0.00,meteohub,2013-04-20 13:07:00,
2013-04-20 14:12:00,57.0,43.3,30.34,West,265,9.0,19.0,60,0.00,,,0.00,meteohub,2013-04-20 13:12:00,
2013-04-20 14:17:00,57.0,42.8,30.34,SSW,209,9.0,19.0,59,0.00,,,0.00,meteohub,2013-04-20 13:17:00,
2013-04-20 14:22:00,57.2,43.0,30.34,West,279,5.0,16.0,59,0.00,,,0.00,meteohub,2013-04-20 13:22:00,
2013-04-20 14:27:00,57.7,42.1,30.34,WNW,291,2.0,14.0,56,0.00,,,0.00,meteohub,2013-04-20 13:27:00,
2013-04-20 14:37:00,57.7,43.9,30.33,WSW,237,2.0,19.0,60,0.00,,,0.00,meteohub,2013-04-20 13:37:00,
2013-04-20 14:47:00,57.0,42.8,30.33,West,265,13.0,18.0,59,0.00,,,0.00,meteohub,2013-04-20 13:47:00,
2013-04-20 14:52:00,57.6,43.3,30.33,SW,235,9.0,16.0,59,0.00,,,0.00,meteohub,2013-04-20 13:52:00,
2013-04-20 14:57:00,57.4,45.3,30.33,WSW,243,9.0,15.0,64,0.00,,,0.00,meteohub,2013-04-20 13:57:00,
2013-04-20 15:07:00,57.6,44.6,30.33,SSW,203,4.0,15.0,62,0.00,,,0.00,meteohub,2013-04-20 14:07:00,
2013-04-20 15:12:00,57.9,43.7,30.32,WSW,255,5.0,15.0,59,0.00,,,0.00,meteohub,2013-04-20 14:12:00,
2013-04-20 15:17:00,58.1,43.3,30.32,WSW,256,4.0,15.0,58,0.00,,,0.00,meteohub,2013-04-20 14:17:00,
2013-04-20 15:22:00,58.6,45.3,30.32,WSW,250,9.0,18.0,61,0.00,,,0.00,meteohub,2013-04-20 14:22:00,
2013-04-20 15:27:00,58.6,46.0,30.32,SW,235,15.0,18.0,63,0.00,,,0.00,meteohub,2013-04-20 14:27:00,
2013-04-20 15:32:00,57.7,46.9,30.32,West,261,14.0,18.0,67,0.00,,,0.00,meteohub,2013-04-20 14:32:00,
2013-04-20 15:37:00,57.6,47.1,30.32,West,279,8.0,18.0,68,0.00,,,0.00,meteohub,2013-04-20 14:37:00,
2013-04-20 15:42:00,57.7,47.7,30.32,WSW,240,11.0,18.0,69,0.00,,,0.00,meteohub,2013-04-20 14:42:00,
2013-04-20 15:47:00,57.9,47.5,30.32,NW,315,8.0,15.0,68,0.00,,,0.00,meteohub,2013-04-20 14:47:00,
2013-04-20 15:52:00,57.4,47.3,30.32,WSW,252,8.0,15.0,69,0.00,,,0.00,meteohub,2013-04-20 14:52:00,
2013-04-20 15:57:00,56.3,46.6,30.31,SW,236,9.0,15.0,70,0.00,,,0.00,meteohub,2013-04-20 14:57:00,
2013-04-20 16:07:00,55.9,46.8,30.31,WNW,284,4.0,20.0,71,0.00,,,0.00,meteohub,2013-04-20 15:07:00,
2013-04-20 16:12:00,55.9,47.1,30.31,SW,221,16.0,20.0,72,0.00,,,0.00,meteohub,2013-04-20 15:12:00,
2013-04-20 16:17:00,55.4,46.9,30.31,SW,234,5.0,16.0,73,0.00,,,0.00,meteohub,2013-04-20 15:17:00,
2013-04-20 16:27:00,54.9,46.8,30.31,WSW,239,19.0,20.0,74,0.00,,,0.00,meteohub,2013-04-20 15:27:00,
2013-04-20 16:32:00,55.2,46.8,30.31,SW,232,10.0,19.0,73,0.00,,,0.00,meteohub,2013-04-20 15:32:00,
2013-04-20 16:42:00,55.9,45.9,30.30,West,272,6.0,22.0,69,0.00,,,0.00,meteohub,2013-04-20 15:42:00,
2013-04-20 16:47:00,55.8,45.3,30.30,West,261,13.0,22.0,68,0.00,,,0.00,meteohub,2013-04-20 15:47:00,
2013-04-20 16:52:00,55.8,45.3,30.30,WSW,257,4.0,22.0,68,0.00,,,0.00,meteohub,2013-04-20 15:52:00,
2013-04-20 16:57:00,55.8,45.0,30.30,SSW,202,5.0,14.0,67,0.00,,,0.00,meteohub,2013-04-20 15:57:00,
2013-04-20 17:02:00,55.8,45.0,30.30,West,279,4.0,14.0,67,0.00,,,0.00,meteohub,2013-04-20 16:02:00,
2013-04-20 17:07:00,55.6,45.1,30.30,WNW,298,4.0,14.0,68,0.00,,,0.00,meteohub,2013-04-20 16:07:00,
2013-04-20 17:12:00,55.6,45.5,30.29,SW,228,13.0,14.0,69,0.00,,,0.00,meteohub,2013-04-20 16:12:00,
2013-04-20 17:17:00,55.0,45.5,30.29,South,178,5.0,14.0,70,0.00,,,0.00,meteohub,2013-04-20 16:17:00,
2013-04-20 17:22:00,54.9,45.0,30.29,WSW,248,4.0,13.0,69,0.00,,,0.00,meteohub,2013-04-20 16:22:00,
2013-04-20 17:27:00,54.7,44.8,30.29,SW,236,2.0,14.0,69,0.00,,,0.00,meteohub,2013-04-20 16:27:00,
2013-04-20 17:32:00,54.7,44.8,30.28,West,260,4.0,14.0,69,0.00,,,0.00,meteohub,2013-04-20 16:32:00,
2013-04-20 17:37:00,54.5,44.6,30.28,SW,229,4.0,14.0,69,0.00,,,0.00,meteohub,2013-04-20 16:37:00,
2013-04-20 17:42:00,54.5,44.2,30.28,WSW,238,8.0,14.0,68,0.00,,,0.00,meteohub,2013-04-20 16:42:00,
2013-04-20 17:47:00,54.3,44.8,30.28,SSE,156,5.0,13.0,70,0.00,,,0.00,meteohub,2013-04-20 16:47:00,
2013-04-20 17:52:00,54.1,44.2,30.28,West,277,4.0,13.0,69,0.00,,,0.00,meteohub,2013-04-20 16:52:00,
2013-04-20 17:57:00,54.1,45.0,30.28,WNW,294,5.0,14.0,71,0.00,,,0.00,meteohub,2013-04-20 16:57:00,
2013-04-20 18:07:00,53.8,45.3,30.28,WSW,244,10.0,14.0,73,0.00,,,0.00,meteohub,2013-04-20 17:07:00,
2013-04-20 18:17:00,53.6,44.8,30.27,SSW,192,6.0,16.0,72,0.00,,,0.00,meteohub,2013-04-20 17:17:00,
2013-04-20 18:22:00,53.4,45.0,30.27,South,186,6.0,16.0,73,0.00,,,0.00,meteohub,2013-04-20 17:22:00,
2013-04-20 18:32:00,53.2,45.1,30.27,NW,310,4.0,14.0,74,0.00,,,0.00,meteohub,2013-04-20 17:32:00,
2013-04-20 18:37:00,53.2,45.1,30.26,SW,230,6.0,13.0,74,0.00,,,0.00,meteohub,2013-04-20 17:37:00,
2013-04-20 18:42:00,53.1,45.0,30.26,SSW,205,9.0,11.0,74,0.00,,,0.00,meteohub,2013-04-20 17:42:00,
2013-04-20 18:47:00,53.1,45.0,30.26,West,269,4.0,11.0,74,0.00,,,0.00,meteohub,2013-04-20 17:47:00,
2013-04-20 18:57:00,53.1,45.3,30.26,WNW,294,9.0,15.0,75,0.00,,,0.00,meteohub,2013-04-20 17:57:00,
2013-04-20 19:07:00,53.1,45.0,30.25,SSW,202,10.0,19.0,74,0.00,,,0.00,meteohub,2013-04-20 18:07:00,
2013-04-20 19:17:00,53.2,45.1,30.25,SW,225,14.0,18.0,74,0.00,,,0.00,meteohub,2013-04-20 18:17:00,
2013-04-20 19:22:00,53.2,45.1,30.25,SSW,195,11.0,18.0,74,0.00,,,0.00,meteohub,2013-04-20 18:22:00,
2013-04-20 19:27:00,53.2,45.1,30.25,West,281,4.0,20.0,74,0.00,,,0.00,meteohub,2013-04-20 18:27:00,
2013-04-20 19:32:00,53.2,45.1,30.25,South,186,6.0,20.0,74,0.00,,,0.00,meteohub,2013-04-20 18:32:00,
2013-04-20 19:37:00,53.1,45.0,30.25,SSW,196,9.0,18.0,74,0.00,,,0.00,meteohub,2013-04-20 18:37:00,
2013-04-20 19:42:00,53.1,45.3,30.25,West,261,5.0,18.0,75,0.00,,,0.00,meteohub,2013-04-20 18:42:00,
2013-04-20 19:47:00,53.1,45.3,30.24,SW,220,4.0,18.0,75,0.00,,,0.00,meteohub,2013-04-20 18:47:00,
2013-04-20 19:57:00,52.9,44.8,30.24,SW,215,10.0,21.0,74,0.00,,,0.00,meteohub,2013-04-20 18:57:00,
2013-04-20 20:02:00,52.7,44.6,30.24,South,173,8.0,21.0,74,0.00,,,0.00,meteohub,2013-04-20 19:02:00,
2013-04-20 20:07:00,52.5,44.8,30.24,SSW,203,8.0,16.0,75,0.00,,,0.00,meteohub,2013-04-20 19:07:00,
2013-04-20 20:17:00,52.5,44.8,30.24,WNW,288,4.0,16.0,75,0.00,,,0.00,meteohub,2013-04-20 19:17:00,
2013-04-20 20:22:00,52.3,44.6,30.24,SSW,207,9.0,16.0,75,0.00,,,0.00,meteohub,2013-04-20 19:22:00,
2013-04-20 20:27:00,52.3,44.6,30.23,SW,216,6.0,16.0,75,0.00,,,0.00,meteohub,2013-04-20 19:27:00,
2013-04-20 20:32:00,52.3,44.6,30.23,West,270,8.0,16.0,75,0.00,,,0.00,meteohub,2013-04-20 19:32:00,
2013-04-20 20:37:00,52.2,44.4,30.23,South,190,6.0,16.0,75,0.00,,,0.00,meteohub,2013-04-20 19:37:00,
2013-04-20 20:42:00,52.2,44.4,30.23,South,190,9.0,16.0,75,0.00,,,0.00,meteohub,2013-04-20 19:42:00,
2013-04-20 20:47:00,52.2,44.4,30.23,SSW,201,8.0,18.0,75,0.00,,,0.00,meteohub,2013-04-20 19:47:00,
2013-04-20 20:52:00,52.2,44.4,30.22,SSW,211,2.0,19.0,75,0.00,,,0.00,meteohub,2013-04-20 19:52:00,
2013-04-20 20:57:00,52.0,44.2,30.22,SW,222,8.0,21.0,75,0.00,,,0.00,meteohub,2013-04-20 19:57:00,
2013-04-20 21:07:00,52.0,44.2,30.22,SW,225,6.0,14.0,75,0.00,,,0.00,meteohub,2013-04-20 20:07:00,
2013-04-20 21:12:00,51.8,44.1,30.22,SSW,201,9.0,16.0,75,0.00,,,0.00,meteohub,2013-04-20 20:12:00,
2013-04-20 21:17:00,51.6,44.2,30.22,WSW,241,2.0,19.0,76,0.00,,,0.00,meteohub,2013-04-20 20:17:00,
2013-04-20 21:22:00,51.6,43.9,30.22,South,185,5.0,19.0,75,0.00,,,0.00,meteohub,2013-04-20 20:22:00,
2013-04-20 21:32:00,51.4,44.1,30.22,SSW,197,6.0,22.0,76,0.00,,,0.00,meteohub,2013-04-20 20:32:00,
2013-04-20 21:37:00,51.4,43.7,30.22,WSW,237,2.0,18.0,75,0.00,,,0.00,meteohub,2013-04-20 20:37:00,
2013-04-20 21:42:00,51.4,44.1,30.21,SSW,196,4.0,19.0,76,0.00,,,0.00,meteohub,2013-04-20 20:42:00,
2013-04-20 21:47:00,51.4,44.1,30.21,SSE,150,5.0,19.0,76,0.00,,,0.00,meteohub,2013-04-20 20:47:00,
2013-04-20 21:52:00,51.4,44.1,30.21,SW,231,10.0,19.0,76,0.00,,,0.00,meteohub,2013-04-20 20:52:00,
2013-04-20 22:02:00,51.3,43.9,30.21,South,187,8.0,18.0,76,0.00,,,0.00,meteohub,2013-04-20 21:02:00,
2013-04-20 22:07:00,51.3,43.9,30.20,SW,225,2.0,13.0,76,0.00,,,0.00,meteohub,2013-04-20 21:07:00,
2013-04-20 22:12:00,51.3,43.9,30.20,SSW,206,5.0,13.0,76,0.00,,,0.00,meteohub,2013-04-20 21:12:00,
2013-04-20 22:17:00,51.3,43.9,30.20,WNW,282,4.0,16.0,76,0.00,,,0.00,meteohub,2013-04-20 21:17:00,
2013-04-20 22:22:00,51.1,43.7,30.19,SSW,207,5.0,21.0,76,0.00,,,0.00,meteohub,2013-04-20 21:22:00,
2013-04-20 22:32:00,51.1,43.7,30.19,SSE,163,5.0,21.0,76,0.00,,,0.00,meteohub,2013-04-20 21:32:00,
2013-04-20 22:37:00,51.1,44.1,30.19,SSW,211,9.0,18.0,77,0.00,,,0.00,meteohub,2013-04-20 21:37:00,
2013-04-20 22:47:00,51.1,44.1,30.18,South,185,5.0,19.0,77,0.00,,,0.00,meteohub,2013-04-20 21:47:00,
2013-04-20 22:52:00,51.1,44.1,30.18,SSW,205,11.0,19.0,77,0.00,,,0.00,meteohub,2013-04-20 21:52:00,
2013-04-20 22:57:00,51.1,44.4,30.18,SSW,206,2.0,15.0,78,0.00,,,0.00,meteohub,2013-04-20 21:57:00,
2013-04-20 23:02:00,50.9,44.2,30.17,SW,219,13.0,14.0,78,0.00,,,0.00,meteohub,2013-04-20 22:02:00,
2013-04-20 23:07:00,50.7,44.1,30.17,SW,220,8.0,19.0,78,0.00,,,0.00,meteohub,2013-04-20 22:07:00,
2013-04-20 23:12:00,50.7,44.1,30.17,SSW,205,2.0,19.0,78,0.00,,,0.00,meteohub,2013-04-20 22:12:00,
2013-04-20 23:22:00,50.5,43.9,30.17,SSE,155,10.0,21.0,78,0.00,,,0.00,meteohub,2013-04-20 22:22:00,
2013-04-20 23:27:00,50.5,43.9,30.17,South,176,6.0,21.0,78,0.00,,,0.00,meteohub,2013-04-20 22:27:00,
2013-04-20 23:32:00,50.4,43.7,30.16,South,185,9.0,16.0,78,0.00,,,0.00,meteohub,2013-04-20 22:32:00,
2013-04-20 23:37:00,50.2,43.9,30.16,South,181,14.0,16.0,79,0.00,,,0.00,meteohub,2013-04-20 22:37:00,
2013-04-20 23:42:00,50.0,43.7,30.16,SSW,207,6.0,16.0,79,0.00,,,0.00,meteohub,2013-04-20 22:42:00,
2013-04-20 23:47:00,49.8,43.9,30.16,SSW,205,8.0,21.0,80,0.00,,,0.00,meteohub,2013-04-20 22:47:00,
2013-04-20 23:57:00,49.8,43.9,30.15,SW,220,11.0,21.0,80,0.00,,,0.00,meteohub,2013-04-20 22:57:00,